N0ZMJ-3 Weather Reports


Display with metric or nautical units.
time (UTC)temp
F
wind
direction
speed
MPH
gust
MPH
rain 1hr
in
rain 24hr
in
rain mn
in
humidity
%
barometer
mb
20260906001059 85 168 1.0 4.0 0.00 0.36 0.36 64 1012.5
20260906000428 86 161 1.0 6.0 0.00 0.36 0.36 63 1012.3
20260906000400 86 161 1.0 6.0 0.00 0.36 0.36 63 1012.3
20260905235659 86 151 1.0 4.0 0.00 0.36 0.36 63 1012.0
20260905235428 86 145 2.0 7.0 0.00 0.36 0.36 63 1012.0
20260905234959 86 184 2.0 7.0 0.00 0.36 0.36 62 1012.1
20260905234427 87 180 1.0 8.0 0.00 0.36 0.36 62 1012.0
20260905234259 87 180 1.0 8.0 0.00 0.36 0.36 62 1012.0
20260905233600 87 183 3.0 8.0 0.00 0.36 0.36 61 1012.1
20260905233427 87 203 1.0 8.0 0.00 0.36 0.36 61 1012.1
20260905232858 87 173 2.0 10.0 0.00 0.36 0.36 62 1012.1
20260905232427 87 173 2.0 11.0 0.00 0.36 0.36 62 1012.1
20260905232200 87 173 2.0 11.0 0.00 0.36 0.36 62 1012.1
20260905231501 87 158 2.0 8.0 0.00 0.36 0.36 63 1012.1
20260905231429 87 158 2.0 8.0 0.00 0.36 0.36 63 1012.1
20260905230801 87 156 3.0 6.0 0.00 0.36 0.36 62 1012.1
20260905230429 87 191 2.0 5.0 0.00 0.36 0.36 62 1012.1
20260905230100 87 191 2.0 5.0 0.00 0.36 0.36 62 1012.1
20260905225429 88 167 4.0 8.0 0.00 0.36 0.36 61 1012.1
20260905225401 88 167 4.0 8.0 0.00 0.36 0.36 61 1012.1
20260905224700 88 139 2.0 6.0 0.00 0.36 0.36 61 1012.1
20260905224429 88 152 1.0 7.0 0.00 0.36 0.36 60 1012.1
20260905224004 88 167 3.0 8.0 0.00 0.36 0.36 59 1012.1
20260905223428 88 184 1.0 8.0 0.00 0.36 0.36 60 1012.2
20260905223300 88 184 1.0 8.0 0.00 0.36 0.36 60 1012.2
20260905222604 88 205 2.0 7.0 0.00 0.36 0.36 59 1012.2
20260905222428 88 164 1.0 6.0 0.00 0.36 0.36 60 1012.2
20260905221859 88 190 3.0 8.0 0.00 0.36 0.36 60 1012.1
20260905221428 88 162 2.0 8.0 0.00 0.36 0.36 60 1012.2
20260905221200 88 162 2.0 8.0 0.00 0.36 0.36 60 1012.2
20260905220501 88 160 2.0 5.0 0.00 0.36 0.36 60 1012.1
20260905220428 88 160 2.0 5.0 0.00 0.36 0.36 60 1012.1
20260905215759 88 140 2.0 6.0 0.00 0.36 0.36 61 1012.0
20260905215428 88 116 3.0 7.0 0.00 0.36 0.36 60 1012.0
20260905215100 88 116 3.0 7.0 0.00 0.36 0.36 60 1012.0
20260905214428 88 135 2.0 7.0 0.00 0.36 0.36 61 1012.0
20260905214401 88 135 2.0 7.0 0.00 0.36 0.36 61 1012.0
20260905213701 88 144 2.0 7.0 0.00 0.36 0.36 60 1012.0
20260905213428 88 168 3.0 7.0 0.00 0.36 0.36 59 1011.9
20260905213001 88 148 2.0 7.0 0.00 0.36 0.36 59 1012.0
20260905212428 88 175 2.0 7.0 0.00 0.36 0.36 59 1011.9
20260905212300 88 175 2.0 7.0 0.00 0.36 0.36 59 1011.9
20260905211600 88 118 3.0 7.0 0.00 0.36 0.36 59 1011.9
20260905211427 87 110 2.0 7.0 0.00 0.36 0.36 60 1011.9
20260905210901 87 101 3.0 8.0 0.00 0.36 0.36 59 1012.0
20260905210427 87 119 2.0 8.0 0.00 0.36 0.36 59 1012.0
20260905210201 87 119 2.0 8.0 0.00 0.36 0.36 59 1012.0
20260905205458 88 117 3.0 7.0 0.00 0.36 0.36 58 1011.9
20260905205427 88 117 3.0 7.0 0.00 0.36 0.36 58 1011.9
20260905204803 88 159 4.0 8.0 0.00 0.36 0.36 58 1011.9
20260905204429 87 151 3.0 9.0 0.00 0.36 0.36 57 1011.9
20260905204100 87 151 3.0 9.0 0.00 0.36 0.36 57 1011.9
20260905203429 88 117 3.0 8.0 0.00 0.36 0.36 58 1011.8
20260905203401 88 117 3.0 8.0 0.00 0.36 0.36 58 1011.8
20260905202706 88 110 3.0 8.0 0.00 0.36 0.36 58 1011.7
20260905202429 88 122 3.0 8.0 0.00 0.36 0.36 58 1011.8
20260905202003 88 171 3.0 11.0 0.00 0.36 0.36 59 1011.8
20260905201428 88 96 5.0 11.0 0.00 0.36 0.36 59 1011.8
20260905201300 88 96 5.0 11.0 0.00 0.36 0.36 59 1011.8
20260905200600 87 111 3.0 10.0 0.00 0.36 0.36 60 1011.8
20260905200428 87 101 4.0 10.0 0.00 0.36 0.36 60 1011.6
20260905195900 87 98 5.0 9.0 0.00 0.36 0.36 59 1011.7
20260905195428 87 132 2.0 8.0 0.00 0.36 0.36 61 1011.8
20260905195201 87 132 2.0 8.0 0.00 0.36 0.36 61 1011.8
20260905194500 86 98 2.0 12.0 0.00 0.36 0.36 63 1011.9
20260905194428 86 98 2.0 12.0 0.00 0.36 0.36 63 1011.9
20260905193801 86 85 7.0 10.0 0.00 0.36 0.36 62 1012.0
20260905193428 85 96 5.0 9.0 0.00 0.36 0.36 64 1012.0
20260905193105 85 96 5.0 9.0 0.00 0.36 0.36 64 1012.0
20260905192428 85 93 6.0 9.0 0.00 0.36 0.36 63 1012.0
20260905192400 85 93 6.0 9.0 0.00 0.36 0.36 63 1012.0
20260905191702 85 179 2.0 10.0 0.00 0.36 0.36 64 1011.9
20260905191428 85 104 4.0 12.0 0.00 0.36 0.36 64 1012.0
20260905190959 85 92 7.0 12.0 0.00 0.36 0.36 63 1012.0
20260905190428 85 96 5.0 7.0 0.00 0.36 0.36 65 1011.9
20260905190300 85 96 5.0 7.0 0.00 0.36 0.36 65 1011.9
20260905185606 85 102 2.0 8.0 0.00 0.36 0.36 64 1012.0
20260905185428 84 110 3.0 9.0 0.00 0.36 0.36 65 1012.0
20260905184900 84 105 4.0 9.0 0.00 0.36 0.36 65 1012.2
20260905184427 84 99 4.0 11.0 0.00 0.36 0.36 65 1012.2
20260905184200 84 99 4.0 11.0 0.00 0.36 0.36 65 1012.2
20260905183500 84 118 5.0 14.0 0.00 0.36 0.36 64 1012.4
20260905183427 84 118 5.0 14.0 0.00 0.36 0.36 64 1012.4
20260905182759 84 100 5.0 14.0 0.00 0.36 0.36 64 1012.4
20260905182427 84 102 4.0 11.0 0.00 0.36 0.36 65 1012.5
20260905182059 84 102 4.0 11.0 0.00 0.36 0.36 65 1012.5
20260905181427 84 95 7.0 13.0 0.00 0.36 0.36 66 1012.7
20260905181404 84 95 7.0 13.0 0.00 0.36 0.36 66 1012.7
20260905180701 84 164 3.0 9.0 0.00 0.36 0.36 67 1012.6
20260905180429 83 111 4.0 8.0 0.00 0.36 0.36 67 1012.7
20260905180002 83 144 3.0 10.0 0.00 0.36 0.36 67 1012.6
20260905175429 83 146 3.0 10.0 0.00 0.36 0.36 67 1012.7
20260905175306 83 146 3.0 10.0 0.00 0.36 0.36 67 1012.7
20260905174601 83 133 3.0 11.0 0.00 0.36 0.36 67 1012.7
20260905174429 82 105 3.0 11.0 0.00 0.36 0.36 68 1012.6
20260905173904 82 134 2.0 10.0 0.00 0.36 0.36 70 1012.7
20260905173428 82 94 4.0 10.0 0.00 0.36 0.36 71 1012.6
20260905173200 82 94 4.0 10.0 0.00 0.36 0.36 71 1012.6
20260905172500 81 145 4.0 12.0 0.00 0.36 0.36 71 1012.5
20260905172428 81 145 4.0 12.0 0.00 0.36 0.36 71 1012.5
20260905171759 81 137 5.0 12.0 0.00 0.36 0.36 70 1012.5
20260905171429 81 122 3.0 10.0 0.00 0.36 0.36 71 1012.5
20260905171103 81 122 3.0 10.0 0.00 0.36 0.36 71 1012.5
20260905170429 81 177 2.0 10.0 0.00 0.36 0.36 74 1012.4
20260905170400 81 177 2.0 10.0 0.00 0.36 0.36 74 1012.4
20260905165702 80 120 3.0 9.0 0.00 0.36 0.36 73 1012.4
20260905165428 80 137 3.0 9.0 0.00 0.36 0.36 73 1012.6
20260905165000 80 139 2.0 9.0 0.00 0.36 0.36 74 1012.6
20260905164429 79 128 3.0 11.0 0.00 0.36 0.36 75 1012.6
20260905164300 79 128 3.0 11.0 0.00 0.36 0.36 75 1012.6
20260905163600 79 119 3.0 11.0 0.00 0.36 0.36 75 1012.7
20260905163428 78 110 5.0 11.0 0.00 0.36 0.36 76 1012.8
20260905162902 78 114 4.0 11.0 0.00 0.36 0.36 77 1012.9
20260905162428 78 138 3.0 10.0 0.00 0.36 0.36 78 1012.9
20260905162200 78 138 3.0 10.0 0.00 0.36 0.36 78 1012.9
20260905161500 77 98 4.0 7.0 0.00 0.36 0.36 78 1012.8
20260905161428 77 98 4.0 7.0 0.00 0.36 0.36 78 1012.8
20260905160759 77 120 3.0 8.0 0.00 0.36 0.36 79 1012.7
20260905160427 77 117 3.0 8.0 0.00 0.36 0.36 80 1012.7
20260905160059 77 117 3.0 8.0 0.00 0.36 0.36 80 1012.7
20260905155427 76 179 3.0 8.0 0.00 0.36 0.36 82 1012.5
20260905155359 76 179 3.0 8.0 0.00 0.36 0.36 82 1012.5
20260905154659 76 129 3.0 7.0 0.00 0.36 0.36 82 1012.6
20260905154427 75 114 2.0 7.0 0.00 0.36 0.36 83 1012.8
20260905154000 74 101 3.0 8.0 0.00 0.36 0.36 84 1012.8
20260905153427 74 87 5.0 8.0 0.00 0.36 0.36 83 1012.6
20260905153258 74 87 5.0 8.0 0.00 0.36 0.36 83 1012.6
20260905152601 74 84 3.0 8.0 0.00 0.36 0.36 84 1012.8
20260905152429 74 91 4.0 8.0 0.00 0.36 0.36 84 1012.8
20260905151902 73 89 5.0 9.0 0.00 0.36 0.36 83 1012.8
20260905151429 73 93 5.0 9.0 0.00 0.36 0.36 83 1012.3
20260905151201 73 93 5.0 9.0 0.00 0.36 0.36 83 1012.3
20260905150501 73 91 4.0 8.0 0.00 0.36 0.36 83 1012.4
20260905150429 73 91 4.0 8.0 0.00 0.36 0.36 83 1012.4
20260905145800 73 94 4.0 8.0 0.00 0.36 0.36 83 1012.3
20260905145429 73 93 4.0 7.0 0.00 0.36 0.36 83 1012.4
20260905145100 73 93 4.0 7.0 0.00 0.36 0.36 83 1012.4
20260905144428 73 93 4.0 8.0 0.00 0.36 0.36 83 1012.6
20260905144400 73 93 4.0 8.0 0.00 0.36 0.36 83 1012.6
20260905143701 73 95 3.0 8.0 0.00 0.36 0.36 82 1012.6
20260905143428 73 76 2.0 7.0 0.00 0.36 0.36 82 1012.5
20260905143002 73 88 4.0 8.0 0.00 0.36 0.36 81 1012.3
20260905142428 73 91 3.0 9.0 0.00 0.36 0.36 82 1012.4
20260905142259 73 91 3.0 9.0 0.00 0.36 0.36 82 1012.4
20260905141603 73 111 3.0 9.0 0.00 0.36 0.36 81 1012.4
20260905141428 73 91 4.0 10.0 0.00 0.36 0.36 82 1012.4
20260905140900 72 115 4.0 11.0 0.00 0.36 0.36 83 1012.5
20260905140428 72 125 4.0 16.0 0.00 0.36 0.36 85 1012.4
20260905140201 72 125 4.0 16.0 0.00 0.36 0.36 85 1012.4
20260905135459 70 178 4.0 16.0 0.00 0.36 0.36 89 1011.5
20260905135428 70 178 4.0 16.0 0.00 0.36 0.36 89 1011.5
20260905134807 70 169 3.0 10.0 0.00 0.36 0.36 89 1012.2
20260905134428 70 157 2.0 9.0 0.00 0.36 0.36 91 1013.1
20260905134101 70 157 2.0 9.0 0.00 0.36 0.36 91 1013.1
20260905133428 70 56 1.0 5.0 0.00 0.36 0.36 90 1013.3
20260905133402 70 56 1.0 5.0 0.00 0.36 0.36 90 1013.3
20260905132703 70 126 1.0 12.0 0.00 0.36 0.36 90 1013.5
20260905132428 70 156 2.0 12.0 0.00 0.36 0.36 90 1013.7
20260905132000 70 145 3.0 9.0 0.00 0.36 0.36 90 1013.9
20260905131429 70 184 3.0 9.0 0.00 0.36 0.36 90 1014.2
20260905131301 70 184 3.0 9.0 0.00 0.36 0.36 90 1014.2
20260905130602 70 189 2.0 12.0 0.00 0.36 0.36 91 1014.3
20260905130429 69 160 4.0 12.0 0.00 0.36 0.36 92 1014.4
20260905125902 69 159 2.0 10.0 0.00 0.36 0.36 93 1014.3
20260905125429 69 175 2.0 7.0 0.00 0.36 0.36 94 1014.3
20260905125202 69 175 2.0 7.0 0.00 0.36 0.36 94 1014.3
20260905124502 69 159 2.0 6.0 0.00 0.36 0.36 95 1014.4
20260905124428 69 159 2.0 6.0 0.00 0.36 0.36 95 1014.4
20260905123800 69 173 1.0 5.0 0.00 0.36 0.36 95 1014.3
20260905123428 69 90 1.0 5.0 0.00 0.36 0.36 95 1014.2
20260905123100 69 90 1.0 5.0 0.00 0.36 0.36 95 1014.2
20260905122428 69 96 2.0 7.0 0.00 0.36 0.36 95 1014.1
20260905122401 69 96 2.0 7.0 0.00 0.36 0.36 95 1014.1
20260905121700 70 99 3.0 7.0 0.00 0.36 0.36 94 1014.3
20260905121428 70 132 1.0 11.0 0.00 0.36 0.36 95 1014.4
20260905121001 69 104 4.0 11.0 0.00 0.36 0.36 95 1014.4
20260905120428 69 102 5.0 10.0 0.00 0.36 0.36 98 1014.1
20260905115559 69 123 1.0 4.0 0.22 0.35 0.35 100 1015.0
20260905115428 69 174 1.0 4.0 0.22 0.35 0.35 100 1015.3
20260905114859 69 162 1.0 4.0 0.21 0.34 0.34 100 1015.3
20260905114427 70 168 1.0 5.0 0.19 0.32 0.32 100 1015.3
20260905114203 70 168 1.0 5.0 0.19 0.32 0.32 100 1015.3
20260905113458 71 181 2.0 4.0 0.14 0.27 0.27 100 1015.5
20260905113427 71 181 2.0 4.0 0.14 0.27 0.27 100 1015.5
20260905112759 71 235 0.0 6.0 0.12 0.25 0.25 100 1015.7
20260905112427 71 244 2.0 6.0 0.09 0.22 0.22 100 1015.7
20260905112101 71 244 2.0 6.0 0.09 0.22 0.22 100 1015.7
20260905111429 72 171 1.0 4.0 0.04 0.17 0.17 100 1015.7
20260905111402 72 171 1.0 4.0 0.04 0.17 0.17 100 1015.7
20260905110429 72 228 3.0 7.0 0.13 0.13 0.13 100 1015.7
20260905110004 73 168 1.0 7.0 0.10 0.10 0.10 100 1015.4
20260905105428 73 207 2.0 11.0 0.09 0.09 0.09 100 1015.2
20260905105306 73 207 2.0 11.0 0.09 0.09 0.09 100 1015.2
20260905104603 73 228 4.0 11.0 0.08 0.08 0.08 100 1014.8
20260905104427 73 195 2.0 10.0 0.07 0.07 0.07 100 1014.5
20260905103858 73 204 4.0 17.0 0.06 0.06 0.06 100 1014.3
20260905103427 73 223 6.0 17.0 0.06 0.06 0.06 100 1014.0
20260905102503 72 204 2.0 5.0 0.02 0.02 0.02 100 1013.8
20260905102429 72 204 2.0 5.0 0.02 0.02 0.02 100 1013.8
20260905101801 72 183 1.0 4.0 0.00 0.00 0.00 100 1013.7
20260905101429 72 132 1.0 4.0 0.00 0.00 0.00 100 1013.7
20260905101100 72 132 1.0 4.0 0.00 0.00 0.00 100 1013.7
20260905100428 72 99 2.0 6.0 0.00 0.00 0.00 100 1013.8
20260905100400 72 99 2.0 6.0 0.00 0.00 0.00 100 1013.8
20260905095706 72 99 1.0 8.0 0.00 0.00 0.00 100 1013.5
20260905095428 72 100 3.0 8.0 0.00 0.00 0.00 100 1013.2
20260905095001 73 97 4.0 6.0 0.00 0.00 0.00 100 1012.7
20260905094428 73 170 1.0 8.0 0.00 0.00 0.00 100 1012.1
20260905094302 73 170 1.0 8.0 0.00 0.00 0.00 100 1012.1
20260905093559 73 107 3.0 8.0 0.00 0.00 0.00 100 1011.8
20260905093428 73 110 3.0 8.0 0.00 0.00 0.00 100 1011.8
20260905092859 73 146 2.0 7.0 0.00 0.00 0.00 100 1012.4
20260905092428 73 100 4.0 9.0 0.00 0.00 0.00 100 1012.8
20260905092159 73 100 4.0 9.0 0.00 0.00 0.00 100 1012.8
20260905091500 73 104 4.0 7.0 0.00 0.00 0.00 100 1012.8
20260905091427 73 104 4.0 7.0 0.00 0.00 0.00 100 1012.8
20260905090801 73 106 3.0 7.0 0.00 0.00 0.00 100 1013.0
20260905090427 73 89 4.0 7.0 0.00 0.00 0.00 100 1013.0
20260905085428 74 104 4.0 6.0 0.00 0.00 0.00 100 1012.9
20260905085401 74 104 4.0 6.0 0.00 0.00 0.00 100 1012.9
20260905084703 74 103 4.0 6.0 0.00 0.00 0.00 100 1012.9
20260905084428 74 103 1.0 4.0 0.00 0.00 0.00 100 1013.1
20260905084003 73 103 3.0 4.0 0.00 0.00 0.00 100 1013.2
20260905083428 73 103 2.0 6.0 0.00 0.00 0.00 100 1013.3
20260905083302 73 103 2.0 6.0 0.00 0.00 0.00 100 1013.3
20260905082600 73 103 2.0 6.0 0.00 0.00 0.00 100 1012.8
20260905082428 73 103 2.0 5.0 0.00 0.00 0.00 100 1012.8
20260905081859 73 104 0.0 1.0 0.00 0.00 0.00 100 1012.8
20260905081427 73 103 0.0 3.0 0.00 0.00 0.00 100 1012.9
20260905081159 73 103 0.0 3.0 0.00 0.00 0.00 100 1012.9
20260905080503 73 103 2.0 7.0 0.00 0.00 0.00 100 1012.5
20260905080427 73 103 2.0 7.0 0.00 0.00 0.00 100 1012.5
20260905075800 73 96 4.0 9.0 0.00 0.00 0.00 100 1012.2
20260905075428 73 96 5.0 9.0 0.00 0.00 0.00 100 1012.2
20260905075100 73 96 5.0 9.0 0.00 0.00 0.00 100 1012.2
20260905074428 73 92 4.0 8.0 0.00 0.00 0.00 100 1012.7
20260905074401 73 92 4.0 8.0 0.00 0.00 0.00 100 1012.7
20260905073659 72 74 3.0 8.0 0.00 0.00 0.00 100 1012.9
20260905073428 72 102 4.0 8.0 0.00 0.00 0.00 100 1012.7
20260905073000 72 93 4.0 7.0 0.00 0.00 0.00 100 1012.8
20260905072428 72 90 4.0 7.0 0.00 0.00 0.00 100 1012.7
20260905072308 72 90 4.0 7.0 0.00 0.00 0.00 100 1012.7
20260905071427 71 99 4.0 7.0 0.00 0.00 0.00 100 1012.9
20260905070901 71 61 2.0 5.0 0.00 0.00 0.00 100 1012.9
20260905070427 71 61 1.0 5.0 0.00 0.00 0.00 100 1013.1
20260905070205 71 61 1.0 5.0 0.00 0.00 0.00 100 1013.1
20260905065459 71 101 1.0 4.0 0.00 0.00 0.00 100 1013.3
20260905065427 71 101 1.0 4.0 0.00 0.00 0.00 100 1013.3
20260905064800 71 101 1.0 4.0 0.00 0.00 0.00 100 1013.3
20260905064429 70 101 1.0 3.0 0.00 0.00 0.00 100 1013.3
20260905064104 70 101 1.0 3.0 0.00 0.00 0.00 100 1013.3
20260905063429 71 101 1.0 2.0 0.00 0.00 0.00 100 1013.4
20260905063401 71 101 1.0 2.0 0.00 0.00 0.00 100 1013.4
20260905062703 71 101 0.0 2.0 0.00 0.00 0.00 100 1013.4
20260905062429 71 101 0.0 2.0 0.00 0.00 0.00 100 1013.3
20260905062006 71 101 0.0 2.0 0.00 0.00 0.00 100 1013.1
20260905061427 71 101 0.0 2.0 0.00 0.00 0.00 100 1013.3
20260905061259 71 101 0.0 2.0 0.00 0.00 0.00 100 1013.3
20260905060559 71 101 1.0 4.0 0.00 0.00 0.00 100 1013.2
20260905060427 71 101 1.0 4.0 0.00 0.00 0.00 100 1013.2
20260905055900 71 101 2.0 4.0 0.00 0.00 0.00 100 1013.2
20260905055429 71 101 0.0 0.0 0.00 0.00 0.00 100 1013.2
20260905055202 71 101 0.0 0.0 0.00 0.00 0.00 100 1013.2
20260905054501 71 101 0.0 0.0 0.00 0.00 0.00 100 1013.2
20260905054429 71 101 0.0 0.0 0.00 0.00 0.00 100 1013.2
20260905053803 71 101 0.0 0.0 0.00 0.00 0.00 100 1013.2
20260905053429 71 101 0.0 0.0 0.00 0.00 0.00 100 1013.1
20260905053100 71 101 0.0 0.0 0.00 0.00 0.00 100 1013.1
20260905052428 71 101 0.0 0.0 0.00 0.00 0.00 100 1013.0
20260905052402 71 101 0.0 0.0 0.00 0.00 0.00 100 1013.0
20260905051700 72 101 0.0 0.0 0.00 0.00 0.00 100 1012.9
20260905051428 72 101 0.0 0.0 0.00 0.00 0.00 99 1012.8
20260905050959 72 101 0.0 0.0 0.00 0.00 0.00 99 1012.8
20260905050428 72 101 0.0 0.0 0.00 0.00 0.00 99 1013.0
20260905050306 72 101 0.0 0.0 0.00 0.00 0.00 99 1013.0
20260905045603 72 101 0.0 1.0 0.00 0.00 0.00 99 1012.8
20260905045428 72 101 0.0 4.0 0.00 0.00 0.00 98 1012.9
20260905044901 73 101 1.0 4.0 0.00 0.00 0.00 98 1012.8
20260905044428 73 101 1.0 3.0 0.00 0.00 0.00 98 1012.7
20260905044200 73 101 1.0 3.0 0.00 0.00 0.00 98 1012.7
20260905043500 73 101 0.0 1.0 0.00 0.00 0.00 98 1012.7
20260905043428 73 101 0.0 1.0 0.00 0.00 0.00 98 1012.7
20260905042806 73 101 0.0 2.0 0.00 0.00 0.00 97 1012.7
20260905042427 73 101 1.0 2.0 0.00 0.00 0.00 97 1012.7
20260905042103 73 101 1.0 2.0 0.00 0.00 0.00 97 1012.7
20260905041427 73 101 1.0 4.0 0.00 0.00 0.00 97 1012.7
20260905041359 73 101 1.0 4.0 0.00 0.00 0.00 97 1012.7
20260905040659 73 101 1.0 4.0 0.00 0.00 0.00 97 1012.7
20260905040429 73 101 3.0 5.0 0.00 0.00 0.00 96 1012.8
20260905040002 73 101 3.0 7.0 0.00 0.00 0.00 96 1012.8
20260905035429 74 101 3.0 7.0 0.00 0.00 0.00 96 1012.8
20260905035300 74 101 3.0 7.0 0.00 0.00 0.00 96 1012.8
20260905034429 74 97 3.0 6.0 0.00 0.00 0.00 96 1012.9
20260905033905 74 102 3.0 6.0 0.00 0.00 0.00 96 1013.0
20260905033428 74 102 2.0 7.0 0.00 0.00 0.00 96 1012.9
20260905033206 74 102 2.0 7.0 0.00 0.00 0.00 96 1012.9
20260905032506 74 101 3.0 6.0 0.00 0.00 0.00 95 1012.9
20260905032427 74 101 3.0 6.0 0.00 0.00 0.00 95 1012.9
20260905031759 74 87 2.0 5.0 0.00 0.00 0.00 95 1012.8
20260905031427 74 87 2.0 5.0 0.00 0.00 0.00 95 1012.8
20260905031101 74 87 2.0 5.0 0.00 0.00 0.00 95 1012.8
20260905030429 75 98 2.0 5.0 0.00 0.00 0.00 94 1012.7
20260905030400 75 98 2.0 5.0 0.00 0.00 0.00 94 1012.7
20260905025428 75 103 4.0 8.0 0.00 0.00 0.00 94 1012.5
20260905025000 75 96 4.0 8.0 0.00 0.00 0.00 93 1012.5
20260905024428 75 89 1.0 4.0 0.00 0.00 0.00 92 1012.6
20260905024303 75 89 1.0 4.0 0.00 0.00 0.00 92 1012.6
20260905023601 75 89 1.0 4.0 0.00 0.00 0.00 92 1012.5
20260905023428 76 74 2.0 5.0 0.00 0.00 0.00 92 1012.5
20260905022900 76 47 2.0 5.0 0.00 0.00 0.00 91 1012.4
20260905022428 76 81 2.0 5.0 0.00 0.00 0.00 90 1012.3
20260905022203 76 81 2.0 5.0 0.00 0.00 0.00 90 1012.3
20260905021506 76 44 1.0 5.0 0.00 0.00 0.00 89 1012.2
20260905021428 76 44 1.0 5.0 0.00 0.00 0.00 89 1012.2
20260905020803 77 134 2.0 5.0 0.00 0.00 0.00 88 1012.2
20260905020427 77 48 1.0 3.0 0.00 0.00 0.00 87 1012.1
20260905020059 77 48 1.0 3.0 0.00 0.00 0.00 87 1012.1
20260905015427 78 48 1.0 6.0 0.00 0.00 0.00 86 1012.0
20260905015402 78 48 1.0 6.0 0.00 0.00 0.00 86 1012.0
20260905014703 78 53 3.0 6.0 0.00 0.00 0.00 85 1011.8
20260905014427 79 69 2.0 6.0 0.00 0.00 0.00 84 1011.8
20260905013959 79 115 2.0 7.0 0.00 0.00 0.00 83 1011.8
20260905013429 79 115 3.0 8.0 0.00 0.00 0.00 83 1011.7
20260905013301 79 115 3.0 8.0 0.00 0.00 0.00 83 1011.7
20260905012606 80 100 3.0 8.0 0.00 0.00 0.00 82 1011.6
20260905012429 80 113 3.0 7.0 0.00 0.00 0.00 81 1011.6
20260905011900 80 106 2.0 9.0 0.00 0.00 0.00 81 1011.6
20260905011428 81 94 3.0 9.0 0.00 0.00 0.00 80 1011.6
20260905011203 81 94 3.0 9.0 0.00 0.00 0.00 80 1011.6
20260905010459 81 90 5.0 9.0 0.00 0.00 0.00 79 1011.4
20260905010428 81 90 5.0 9.0 0.00 0.00 0.00 79 1011.4
20260905005759 82 95 6.0 9.0 0.00 0.00 0.00 78 1011.5
20260905005428 82 98 6.0 9.0 0.00 0.00 0.00 77 1011.4
20260905005109 82 98 6.0 9.0 0.00 0.00 0.00 77 1011.4
20260905004428 83 92 5.0 8.0 0.00 0.00 0.00 76 1011.4
20260905004402 83 92 5.0 8.0 0.00 0.00 0.00 76 1011.4
20260905003702 83 90 5.0 10.0 0.00 0.00 0.00 75 1011.5
20260905003428 83 100 4.0 10.0 0.00 0.00 0.00 74 1011.5
20260905002959 83 91 5.0 8.0 0.00 0.00 0.00 73 1011.3
20260905002428 84 94 5.0 9.0 0.00 0.00 0.00 72 1011.3
20260905002301 84 94 5.0 9.0 0.00 0.00 0.00 72 1011.3
20260905001603 84 89 5.0 9.0 0.00 0.00 0.00 71 1011.3
20260905001427 84 100 5.0 8.0 0.00 0.00 0.00 70 1011.2